Location: Killam
(52.7910°N, 111.8608°W)
Time: 11:30:45
(UTC+00:00)

AO-73 - Pass Details

Date: 17 March 2026
Orbit: 514 x 567 km, 97.8° (Epoch: 13 April)

Event Time Altitude Azimuth Distance (km) Brightness Sun altitude
Rises 11:48:30 0° 11° (N) 2,675 ? -16.9°
Reaches altitude 10° 11:50:39 10° 7° (N) 1,774 ? -16.5°
Maximum altitude 11:54:23 54° 289° (WNW) 637 ? -16.0°
Enters shadow 11:56:02 29° 226° (SW) 971 ? -15.8°
